This is the latest recevied weather packets stored in our database for station/object K5NAN. If no packets are shown the sender has not sent any weather packets the latest 10 day(s).
| Time | Temp. | Humidity | Pressure | Rain* | Wind** | Luminosity | Snow |
|---|---|---|---|---|---|---|---|
| 1777939442 | 25° C | 60% | 1005.4 hPa | 0 mm | - | 91 W/m² | - |
| 1777939138 | 25° C | 60% | 1005.2 hPa | 0 mm | - | 87 W/m² | - |
| 1777938835 | 25° C | 60% | 1005.3 hPa | 0 mm | - | 85 W/m² | - |
| 1777938531 | 25° C | 60% | 1005.6 hPa | 0 mm | - | 82 W/m² | - |
| 1777938230 | 25° C | 60% | 1005.4 hPa | 0 mm | - | 84 W/m² | - |
| 1777937926 | 25° C | 59% | 1005.5 hPa | 0 mm | - | 103 W/m² | - |
| 1777937621 | 25° C | 58% | 1005.4 hPa | 0 mm | - | 106 W/m² | - |
| 1777937319 | 25° C | 58% | 1005.4 hPa | 0 mm | - | 105 W/m² | - |
| 1777937016 | 25.56° C | 57% | 1005.5 hPa | 0 mm | - | 110 W/m² | - |
| 1777936712 | 25.56° C | 57% | 1005.6 hPa | 0 mm | - | 100 W/m² | - |
| 1777936409 | 26.11° C | 56% | 1005.5 hPa | 0 mm | - | 121 W/m² | - |
| 1777936105 | 26.11° C | 57% | 1005.8 hPa | 0 mm | - | 202 W/m² | - |
| 1777935803 | 26.11° C | 55% | 1005.9 hPa | 0 mm | - | 233 W/m² | - |
| 1777935502 | 26.11° C | 55% | 1006 hPa | 0 mm | - | 275 W/m² | - |
| 1777935197 | 26.11° C | 55% | 1006 hPa | 0 mm | - | 262 W/m² | - |
| 1777934895 | 26.11° C | 55% | 1006 hPa | 0 mm | - | 244 W/m² | - |
| 1777934592 | 26.11° C | 55% | 1005.9 hPa | 0 mm | - | 251 W/m² | - |
| 1777934288 | 26.11° C | 55% | 1005.6 hPa | 0 mm | - | 285 W/m² | - |
| 1777933984 | 26.11° C | 54% | 1005.9 hPa | 0 mm | - | 289 W/m² | - |
| 1777933681 | 26.11° C | 54% | 1006.2 hPa | 0 mm | - | 320 W/m² | - |
| 1777933378 | 26.67° C | 53% | 1006 hPa | 0 mm | - | 336 W/m² | - |
| 1777933076 | 26.11° C | 53% | 1005.9 hPa | 0 mm | - | 370 W/m² | - |
| 1777932773 | 26.67° C | 52% | 1006.2 hPa | 0 mm | - | 402 W/m² | - |
| 1777932469 | 26.67° C | 52% | 1006.1 hPa | 0 mm | - | 394 W/m² | - |
| 1777932166 | 26.67° C | 54% | 1006.3 hPa | 0 mm | - | 431 W/m² | - |
* Rain latest hour (hover to see other rain measurements)
** Current wind speed in m/s (hover to see current wind gust speed)